Location: gie�en
(50.5804°N, 8.6692°E)
Time: 16:04:43
(UTC+01:00)

Tiangong - Pass Details

Date: 19 October 2021
Orbit: 380 x 384 km, 41.5° (Epoch: 04 December)

Event Time Altitude Azimuth Distance (km) Brightness Sun altitude
Rises 20:30:01 0° 227° (SW) 2,265 5.5 -20.5°
Reaches altitude 10° 20:32:51 10° 199° (SSW) 1,409 4.0 -21.0°
Enters shadow 20:33:04 11° 196° (SSW) 1,366 3.9 -21.0°
